Location: Lachepaillet
(43.4918°N, 1.4874°W)
Time: 00:06:41
(UTC+00:00)

Helios 1A Rocket - Pass Details

Date: 15 May 2026
Orbit: 399 x 409 km, 98.3° (Epoch: 9 June)

Event Time Altitude Azimuth Distance (km) Brightness Sun altitude
Rises 20:09:56 0° 16° (NNE) 2,334 6.3 -7.9°
Reaches altitude 10° 20:11:56 10° 19° (NNE) 1,466 5.2 -8.2°
Maximum altitude 20:15:02 67° 102° (ESE) 441 2.1 -8.7°
Drops below altitude 10° 20:18:07 10° 186° (S) 1,447 4.7 -9.1°
Sets 20:20:05 0° 189° (S) 2,299 5.7 -9.4°
